User: anonymous   Login
Location: Selby
(38.0566°N, 122.2439°W)
Time: 13:11:20
(UTC+00:00)
Language:

Helios 1B - Orbit

View from above orbital plane
View from above orbital plane
View from above satellite
View from above satellite

Ground track
Ground track

The orbit data is extracted from the following two-line orbital elements,

1 25977U 99064A   24276.40117067  .00005342  00000-0  63348-3 0  9996
2 25977  98.2256 151.5795 0001348  37.7104 322.4204 14.84958506607522
Epoch (UTC): 02 October 2024 09:37:41
Eccentricity: 0.0001348
inclination: 98.2256°
perigee height: 613 km
apogee height: 614 km
right ascension of ascending node: 151.5795°
argument of perigee: 37.7104°
revolutions per day: 14.84958506
mean anomaly at epoch: 322.4204°
orbit number at epoch: 60752

The dashed part of the orbit path shows where the satellite is in the earth's shadow,  

DLR